Tracking 29489 objects as of 10-Sep-2024
HD Live streaming from Space Station
objects crossing your sky now

GRBALPHA

Track GRBALPHA now!
10-day predictions
GRBALPHA is classified as:


NORAD ID: 47941
Int'l Code: 2021-022K
Perigee: 488.1 km
Apogee: 506.7 km
Inclination: 97.4 °
Period: 94.4 minutes
Semi major axis: 6868 km
RCS: Unknown
Launch date: March 22, 2021
Source: (TBD)
Launch site: TYURATAM MISSILE AND SPACE COMPLEX (TTMTR)

Uplink (MHz):
Downlink (MHz): 435.310
Beacon (MHz):
Mode: 1k2/9k6* FSK
Call sign:
Status: Active


Uplink (MHz):
Downlink (MHz): 435.310
Beacon (MHz):
Mode: 1k2/9k6* FSK
Call sign:
Status: Active

Your satellite tracking list
Your tracking list is empty




NASA's NSSDC Master Catalog

Two Line Element Set (TLE):
1 47941U 21022K   24253.79617231  .00036120  00000-0  14337-2 0  9996
2 47941  97.4469 149.9458 0013483 196.4367 163.6435 15.25174032191347
Source of the keplerian elements: AFSPC